EHI
0 0 0 0 0 0 0 0 0 0 0 0 0 0 0 0 0 0 0 0 0 0 0 0 1 1 1 1 1 0 0 0 0 0 0 0 0 0 0 0 0 0 0 0
0 0 0 0 0 0 0 0 0 0 0 0 0 0 0 0 0 0 0 0 0 0 0 0 0 0 0 0 0 0 0 0 0 0 0 0 0 0 0 0 0 0 0 0
0 0 0 0 0 0 0 0 0 0 0 0 0 0 0 0 0 0 0 0 0 0 0 0 0 0 0 0 0 0 0 0 0 0 0 0 0 0 0 0 0 0 0 0
0 0 0 0 0 0 0 0 0 0 0 0 0 0 0 0 0 0 0 0 0 0 0 0 0 0 0 0 0 0 0 0 0 0 0 0 0 0 0 0 0 0 0 0
0 0 0 0 0 0 0 0 0 0 0 0 0 0 0 0 0 0 0 0 0 0 0 0 0 0 0 0 0 0 0 0 0 0 0 0 0 0 0 0 0 0 0 0
0 0 0 0 0 0 0 0 0 0 0 0 0 0 0 0 0 0 0 0 0 0 0 0 0 0 0 0 0 0 0 0 0 0 0 0 0 0 0 0 0 0 0 0
0 0 0 0 0 0 0 0 0 0 0 0 0 0 0 0 0 0 0 0 0 0 0 0 0 0 0 0 0 0 0 0 0 0 0 0 0 0 0 0 0 0 0 0
0 0 0 0 0 0 0 0 0 0 0 0 0 0 0 0 0 0 0 0 0 0 0 0 0 0 0 0 0 0 0 0 0 0 0 0 0 0 0 0 0 0 0 0
0 0 0 0 0 0 0 0 0 0 0 0 0 0 0 0 0 0 0 0 0 0 0 0 0 0 0 0 0 0 0 0 0 0 0 0 0 0 0 0 0 0 0 0
0 0 0 0 0 0 0 0 0 0 0 0 0 0 0 0 0 0 0 0 0 0 0 0 0 0 0 0 0 0 0 0 0 0 0 0 0 0 0 0 0 0 0 0
0 0 0 0 0 0 0 0 0 0 0 0 0 0 0 0 0 0 0 0 0 0 0 0 0 0 0 0 0 0 0 0 0 0 0 0 0 0 0 0 0 0 0 0
0 0 0 0 0 0 0 0 0 0 0 0 0 0 0 0 0 0 0 0 0 0 0 0 0 0 0 0 0 0 0 0 0 0 0 0 0 0 0 0 0 0 0 0
0 0 0 0 0 0 0 0 0 0 0 0 0 0 0 0 0 0 0 0 0 0 0 0 0 0 0 0 0 0 0 0 0 0 0 0 0 0 0 0 0 0 0 0
0 0 0 0 0 0 0 0 0 0 0 0 0 0 0 0 0 0 0 0 0 0 0 0 0 0 0 0 0 0 0 0 0 0 0 0 0 0 0 0 0 0 0 0
0 0 0 0 0 0 0 0 0 0 0 0 0 0 0 0 0 0 0 0 0 0 0 0 0 0 0 0 0 0 0 0 0 0 0 0 0 0 0 0 0 0 0 0
0 0 0 0 0 0 0 0 0 0 0 0 0 0 0 0 0 0 0 0 0 0 0 0 0 0 0 0 0 0 0 0 0 0 0 0 0 0 0 0 0 0 0 0
0 0 0 0 0 0 0 0 0 0 0 0 0 0 0 0 0 0 0 0 0 0 0 0 0 0 0 0 0 0 0 0 0 0 0 0 0 0 0 0 0 0 0 0
0 0 0 0 0 0 0 0 0 0 0 0 0 0 0 0 0 0 0 0 0 0 0 0 0 0 0 0 0 0 0 0 0 0 0 0 0 0 0 0 0 0 0 0
0 0 0 0 0 0 0 0 0 0 0 0 0 0 0 0 0 0 0 0 0 0 0 0 0 0 0 0 0 0 0 0 0 0 0 0 0 0 0 0 0 0 0 0
0 0 0 0 0 0 0 0 0 0 0 0 0 0 0 0 0 0 0 0 0 0 0 0 0 0 0 0 0 0 0 0 0 0 0 0 0 0 0 0 0 0 0 0
0 0 0 0 0 0 0 0 0 0 0 0 0 0 0 0 0 0 0 0 0 0 0 0 0 0 0 0 0 0 0 0 0 0 0 0 0 0 0 0 0 0 0 0
0 0 0 0 0 0 0 0 0 0 0 0 0 0 0 0 0 0 0 0 0 0 0 0 0 0 0 0 0 0 0 0 0 0 0 0 0 0 0 0 0 0 0 0
0 0 0 0 0 0 0 0 0 0 0 0 0 0 0 0 0 0 0 0 0 0 0 0 0 0 0 0 0 0 0 0 0 0 0 0 0 0 0 0 0 0 0 0
0 0 0 0 0 0 0 0 0 0 0 0 0 0 0 0 0 0 0 0 0 0 0 0 0 0 0 0 0 0 0 0 0 0 0 0 0 0 0 0 0 0 0 0
0 0 0 0 0 0 0 0 0 0 0 0 0 0 0 0 0 0 0 0 0 0 0 0 0 0 0 0 0 0 0 0 0 0 0 0 0 0 0 0 0 0 0 0
0 0 0 0 0 0 0 0 0 0 0 0 0 0 0 0 0 0 0 0 0 0 0 0 0 0 0 0 0 0 0 0 0 0 0 0 0 0 0 0 0 0 0 0
Wind_Speed
2 4 3 4 3 3 3 2 1 2 1 1 4 7 9 4 4 7 7 7 9 11 7 5 6 6 6 6 7 7 6 5 4 2 2 2 1 0 1 1 1 1 1 2
5 0 3 3 3 3 2 2 1 3 1 0 3 7 7 3 5 6 7 8 9 8 5 5 6 7 8 8 7 7 7 6 5 3 2 2 2 1 1 1 1 1 2 2
5 3 3 4 3 2 0 2 1 1 4 4 4 7 6 4 3 3 4 5 5 8 8 7 7 8 7 9 10 9 8 7 5 4 3 2 2 2 1 1 1 2 2 2
1 1 3 3 2 3 1 2 2 0 3 4 4 3 7 6 7 4 4 3 5 5 6 6 8 8 10 10 8 8 7 7 5 5 4 4 3 2 2 2 1 2 2 2
1 3 4 3 3 5 2 2 2 2 2 3 4 2 8 5 5 6 6 5 5 5 5 7 9 9 9 8 8 7 7 6 5 5 5 4 3 2 1 1 1 2 2 2
1 2 3 3 1 3 2 5 5 5 5 3 3 1 5 4 4 7 6 6 5 4 4 5 5 5 5 6 6 7 7 6 6 6 5 5 5 4 2 2 1 2 2 2
2 1 1 2 3 2 4 5 5 7 5 3 3 0 6 6 4 5 6 6 5 3 3 3 4 6 6 7 8 7 8 7 6 6 6 6 5 5 5 3 3 2 2 2
3 2 2 2 4 4 2 6 6 3 2 4 4 2 6 5 5 4 3 4 5 4 3 4 4 6 6 8 8 8 9 8 7 7 7 5 5 4 3 4 3 3 3 3
4 2 2 1 2 7 5 2 4 6 2 2 5 6 8 5 7 7 7 6 7 6 5 4 4 4 5 7 8 10 10 8 8 8 7 6 6 5 5 4 3 3 3 3
6 2 2 1 4 4 4 7 5 5 4 1 5 4 4 7 7 7 7 7 8 7 6 5 3 4 4 5 5 5 7 9 8 7 7 6 6 6 5 4 4 4 4 3
3 4 2 2 2 3 3 4 5 5 5 5 1 6 5 4 5 6 7 7 7 8 7 5 4 2 2 2 3 5 5 6 6 7 7 6 6 6 5 5 5 5 4 3
3 5 1 2 2 1 3 5 6 5 2 3 3 7 4 2 4 4 6 7 7 7 6 5 4 2 1 1 3 4 6 6 7 7 6 7 6 5 5 6 6 5 4 4
4 6 4 5 6 4 3 3 4 6 5 4 4 7 3 5 6 5 5 7 7 8 8 7 5 4 3 2 2 4 5 6 6 6 7 7 6 7 7 7 6 5 5 4
5 5 6 7 6 2 0 2 4 5 4 4 6 6 6 7 7 8 7 7 7 8 8 8 7 6 5 3 3 3 5 5 5 6 7 8 9 9 9 7 6 6 5 5
5 4 2 2 1 1 2 2 3 5 6 7 5 3 4 5 4 5 6 7 9 10 11 10 8 7 6 5 4 4 4 4 4 5 8 9 8 7 7 7 7 6 6 6
4 4 2 1 1 0 2 3 2 2 2 3 2 1 2 2 2 5 7 8 9 10 10 10 9 9 8 7 6 5 4 4 3 5 8 7 6 7 7 8 7 6 6 6
2 4 3 2 3 2 3 3 2 2 1 3 4 3 1 2 4 5 5 7 7 8 8 9 9 8 8 7 6 5 5 3 3 5 6 5 6 7 8 8 7 8 8 7
4 4 4 1 1 3 4 1 4 5 2 1 2 1 1 1 1 3 4 5 7 8 9 9 9 9 8 8 7 6 4 2 3 4 5 5 5 7 7 7 9 9 7 7
4 6 4 3 2 3 3 0 2 3 1 1 1 1 1 1 2 4 5 5 5 5 6 6 6 7 8 9 9 7 5 4 3 4 5 6 6 7 6 8 10 9 7 8
5 4 5 4 3 5 5 2 1 4 1 2 1 0 1 3 3 3 5 5 5 6 6 6 7 7 8 9 8 7 6 6 6 7 7 6 6 7 8 9 9 7 8 9
3 3 3 4 3 6 4 3 2 3 4 2 1 1 1 1 3 3 4 4 4 5 6 6 6 7 7 8 7 7 7 8 9 8 7 6 6 7 8 8 6 6 7 7
5 5 4 5 4 7 1 2 3 4 2 2 1 1 1 1 1 2 3 4 5 6 6 6 6 7 7 7 7 8 8 9 9 8 8 7 7 7 6 6 6 5 6 8
4 6 6 7 6 2 0 2 2 3 2 2 2 1 1 1 2 2 3 4 4 5 5 5 5 7 7 7 6 8 10 10 10 9 9 8 8 6 6 6 6 5 5 6
3 2 3 2 3 2 1 0 0 1 2 2 2 2 1 1 2 3 3 3 4 5 6 6 6 7 8 8 7 8 9 9 9 10 10 8 7 7 6 5 5 5 6 7
5 3 2 3 4 2 2 3 2 1 1 1 1 1 2 2 2 3 3 4 4 5 5 5 6 7 8 8 8 9 9 9 9 10 9 8 7 7 6 6 6 7 8 9
6 7 7 7 6 5 5 4 3 2 3 3 2 2 2 2 3 3 3 4 4 5 5 6 6 7 8 8 9 9 9 8 9 9 9 7 7 6 6 6 7 9 10 12
Wind_Direction
83 83 156 195 179 146 138 132 296 283 251 200 251 274 283 270 233 237 235 228 229 237 238 209 194 177 167 164 166 166 160 158 143 133 132 132 168 278 321 315 335 346 351 1
71 165 212 150 126 109 96 70 335 315 336 216 300 291 288 260 235 235 233 230 229 235 227 205 188 178 178 176 176 173 174 170 174 164 153 155 150 191 249 301 332 342 346 345
141 206 165 134 126 113 81 185 224 303 354 22 356 333 329 324 305 281 257 238 228 222 219 207 193 191 183 186 185 184 182 178 179 158 119 89 65 37 11 331 319 326 334 333
117 150 133 128 159 146 257 232 193 53 45 346 27 337 310 324 329 324 297 272 248 237 219 206 197 195 197 196 185 181 177 177 176 163 159 154 161 188 224 234 271 308 327 329
192 155 142 170 208 169 209 43 85 76 100 25 19 59 299 338 342 322 308 289 265 246 222 214 207 205 201 186 179 177 172 178 176 173 173 165 170 194 215 239 285 310 323 323
202 182 176 193 176 154 135 68 55 48 65 39 343 72 300 308 297 310 319 318 298 274 246 231 216 197 190 177 176 172 174 185 181 179 181 182 183 186 193 223 255 286 304 306
27 357 230 156 100 62 79 77 35 18 22 290 310 184 261 277 284 281 296 308 313 292 260 238 214 198 191 185 184 179 181 191 188 186 194 196 194 190 199 209 219 235 263 271
106 305 250 180 161 147 125 124 139 154 217 296 344 296 267 282 303 313 317 319 331 324 284 252 231 212 202 195 187 183 190 197 191 194 203 200 197 194 206 209 208 219 229 243
151 249 299 200 147 127 122 112 146 124 122 8 321 316 313 340 355 359 355 351 335 322 304 280 261 228 212 200 197 194 193 198 198 201 200 201 202 202 209 214 213 224 234 241
145 141 339 83 81 49 124 138 99 99 115 4 323 317 291 320 329 338 342 335 324 326 324 313 283 246 226 213 205 197 199 204 204 201 202 205 206 207 206 205 218 225 232 235
123 121 6 52 141 175 110 93 98 100 134 140 264 283 245 264 303 315 315 321 321 322 320 318 309 286 242 204 193 199 206 209 208 207 208 209 208 205 202 209 220 221 222 222
111 110 87 288 300 250 158 153 142 138 177 151 161 266 288 295 314 319 320 325 328 331 331 330 331 341 332 228 215 211 211 213 215 208 206 215 211 200 205 217 223 216 219 222
127 103 72 358 347 6 70 112 121 118 114 143 162 259 321 4 2 359 348 343 344 351 355 357 359 354 334 293 251 232 225 224 220 205 206 212 211 207 214 219 219 214 215 220
107 102 148 184 215 229 302 143 142 126 140 187 215 243 319 343 350 350 353 352 356 3 5 5 0 348 333 317 293 264 249 236 222 209 209 215 216 215 217 215 213 212 210 212
86 116 168 213 236 219 235 234 183 181 186 187 221 210 278 310 324 336 350 2 12 8 5 1 355 347 342 335 321 298 272 254 230 217 218 224 223 219 217 215 213 211 210 213
59 116 108 327 19 320 269 274 232 202 190 189 155 235 276 316 12 20 14 15 13 2 356 354 353 351 345 333 319 310 292 272 236 229 232 230 223 218 217 218 214 210 213 214
64 117 116 255 310 9 290 266 163 118 78 151 171 222 275 17 30 27 15 17 10 357 353 352 348 341 334 327 312 301 293 279 243 244 245 235 224 224 223 219 212 214 213 208
133 113 123 146 52 232 250 350 123 112 67 92 141 176 199 211 147 56 34 20 6 357 353 348 344 340 334 332 328 314 314 297 263 261 260 244 231 233 229 218 219 221 213 208
146 133 120 123 164 281 288 158 149 136 73 354 120 35 355 342 64 15 16 13 357 345 340 335 333 331 336 342 339 334 332 321 299 284 274 261 239 236 230 227 229 222 212 213
70 91 112 129 161 231 241 277 276 118 239 284 131 104 15 65 49 304 341 350 346 344 341 340 340 347 351 344 343 347 337 330 309 292 281 276 256 240 236 234 234 225 215 219
83 78 123 153 203 256 263 294 87 146 235 233 174 164 112 139 204 259 319 335 336 337 338 341 346 350 341 338 346 346 339 325 308 301 291 281 269 252 244 240 239 229 219 217
169 155 171 150 188 246 285 84 144 200 200 167 164 161 146 196 260 302 320 326 335 340 341 343 346 339 334 339 346 340 329 316 314 308 295 284 275 267 260 245 242 231 217 216
193 187 182 185 205 227 250 170 184 157 165 200 186 209 173 203 276 301 313 319 324 329 331 332 332 329 331 335 338 330 319 320 323 319 304 292 287 274 263 247 241 235 218 218
267 156 144 239 254 251 269 163 170 168 186 202 193 202 193 228 266 290 301 311 320 324 323 324 329 331 327 326 324 314 313 318 320 319 312 300 292 287 274 259 243 232 224 223
234 173 165 248 267 299 280 257 231 212 193 194 213 223 223 232 273 276 288 297 302 308 311 315 317 314 312 315 315 314 315 319 319 315 312 308 294 285 276 263 249 242 235 225
206 181 178 218 213 194 230 234 216 206 227 225 227 262 273 248 255 268 274 280 289 297 301 307 307 306 307 310 311 312 314 315 315 315 313 309 302 293 281 276 282 265 255 252